KA3BQE-13 Weather Reports


time (UTC)temp
C
wind
direction
speed
KPH
gust
KPH
rain 1hr
cm
rain 24hr
cm
rain mn
cm
humidity
%
barometer
mb
20260504041608 8 114 1.6 3.2 0.00 0.00 0.00 95 1010.1
20260504041104 8 10 0.0 3.2 0.00 0.00 0.00 95 1009.9
20260504040602 8 319 0.0 1.6 0.00 0.00 0.00 95 1009.9
20260504040058 8 336 3.2 3.2 0.00 0.00 0.00 94 1009.9
20260504035555 8 13 0.0 3.2 0.00 0.00 0.00 94 1009.8
20260504035051 8 32 0.0 3.2 0.00 0.00 0.00 94 1009.9
20260504034549 8 55 0.0 3.2 0.00 0.00 0.00 94 1009.9
20260504034046 8 81 0.0 1.6 0.00 0.00 0.00 94 1010.1
20260504033544 8 8 1.6 3.2 0.00 0.00 0.00 93 1010.2
20260504033041 8 356 3.2 3.2 0.00 0.00 0.00 93 1010.3
20260504032538 8 27 1.6 1.6 0.00 0.00 0.00 93 1010.5
20260504032035 8 99 0.0 1.6 0.00 0.00 0.00 92 1010.4
20260504031532 9 49 0.0 1.6 0.00 0.00 0.00 92 1010.2
20260504031028 9 22 0.0 1.6 0.00 0.00 0.00 92 1010.3
20260504030526 9 0 1.6 3.2 0.00 0.00 0.00 90 1010.4
20260504030021 10 348 1.6 3.2 0.00 0.00 0.00 89 1010.0
20260504025519 10 126 0.0 3.2 0.00 0.00 0.00 90 1010.2
20260504025015 9 31 0.0 3.2 0.00 0.00 0.00 90 1010.1
20260504024512 10 6 0.0 1.6 0.00 0.00 0.00 90 1010.1
20260504024009 10 10 0.0 3.2 0.00 0.00 0.00 89 1010.3
20260504023506 10 6 3.2 3.2 0.00 0.00 0.00 87 1010.3
20260504023002 10 31 0.0 3.2 0.00 0.00 0.00 87 1010.3
20260504022458 10 29 0.0 1.6 0.00 0.00 0.00 88 1010.1
20260504021954 10 18 1.6 1.6 0.00 0.00 0.00 88 1010.1
20260504021452 10 0 1.6 1.6 0.00 0.00 0.00 88 1010.1
20260504020949 10 53 0.0 1.6 0.00 0.00 0.00 87 1010.0
20260504020445 10 16 1.6 3.2 0.00 0.00 0.00 88 1010.2
20260504015942 10 6 0.0 3.2 0.00 0.00 0.00 87 1010.1
20260504015438 11 7 1.6 1.6 0.00 0.00 0.00 86 1010.0
20260504014934 11 22 0.0 3.2 0.00 0.00 0.00 85 1010.2
20260504014431 11 4 0.0 1.6 0.00 0.00 0.00 84 1010.1
20260504013927 11 15 0.0 1.6 0.00 0.00 0.00 83 1010.0
20260504013427 11 354 0.0 1.6 0.00 0.00 0.00 82 1010.0
20260504012926 11 1 0.0 1.6 0.00 0.00 0.00 82 1010.0
20260504012425 11 15 1.6 1.6 0.00 0.00 0.00 81 1009.9
20260504011922 12 6 0.0 0.0 0.00 0.00 0.00 79 1010.1
20260504011419 12 22 0.0 1.6 0.00 0.00 0.00 78 1010.1
20260504010914 12 50 0.0 0.0 0.00 0.00 0.00 77 1009.9
20260504010411 13 22 0.0 3.2 0.00 0.00 0.00 76 1010.0
20260504005907 13 49 0.0 1.6 0.00 0.00 0.00 71 1010.0
20260504005403 14 13 1.6 1.6 0.00 0.00 0.00 69 1010.0
20260504004901 15 29 1.6 3.2 0.00 0.00 0.00 68 1010.0
20260504004359 15 45 0.0 3.2 0.00 0.00 0.00 67 1010.0
20260504003855 16 352 3.2 3.2 0.00 0.00 0.00 65 1009.9
20260504003352 16 326 0.0 1.6 0.00 0.00 0.00 63 1009.8
20260504002848 16 329 1.6 3.2 0.00 0.00 0.00 62 1009.9
20260504002345 17 335 0.0 6.4 0.00 0.00 0.00 59 1009.6
20260504001843 18 224 0.0 3.2 0.00 0.00 0.00 55 1009.8
20260504001340 18 234 1.6 3.2 0.00 0.00 0.00 56 1009.7
20260504000837 18 251 0.0 3.2 0.00 0.00 0.00 56 1009.8
20260504000334 18 236 1.6 4.8 0.00 0.00 0.00 54 1009.8
20260503235832 18 233 4.8 8.0 0.00 0.00 0.00 53 1009.8
20260503235329 18 352 1.6 6.4 0.00 0.00 0.00 53 1009.8
20260503234826 18 304 1.6 6.4 0.00 0.00 0.00 54 1009.9
20260503234324 18 242 4.8 6.4 0.00 0.00 0.00 52 1010.0
20260503233822 18 213 3.2 6.4 0.00 0.00 0.00 52 1010.0
20260503233317 18 241 4.8 6.4 0.00 0.00 0.00 52 1009.9
20260503232814 18 238 4.8 6.4 0.00 0.00 0.00 51 1010.0
20260503232311 18 211 4.8 8.0 0.00 0.00 0.00 50 1010.1
20260503231809 18 233 8.0 8.0 0.00 0.00 0.00 50 1010.1
20260503231306 18 217 3.2 9.7 0.00 0.00 0.00 50 1009.9
20260503230802 18 234 8.0 9.7 0.00 0.00 0.00 49 1009.9
20260503230259 19 212 4.8 11.3 0.00 0.00 0.00 48 1010.1
20260503225757 18 227 16.1 17.7 0.00 0.00 0.00 48 1010.1
20260503225258 19 230 8.0 16.1 0.00 0.00 0.00 48 1010.3
20260503224755 18 182 9.7 14.5 0.00 0.00 0.00 48 1010.2
20260503224252 18 227 14.5 19.3 0.00 0.00 0.00 48 1010.4
20260503223750 18 229 3.2 9.7 0.00 0.00 0.00 50 1010.1
20260503223247 18 199 6.4 12.9 0.00 0.00 0.00 48 1010.3
20260503222743 18 227 0.0 14.5 0.00 0.00 0.00 48 1010.3
20260503222241 19 176 3.2 8.0 0.00 0.00 0.00 48 1010.4
20260503221739 19 205 3.2 17.7 0.00 0.00 0.00 48 1010.4
20260503221237 19 250 1.6 8.0 0.00 0.00 0.00 49 1010.5
20260503220733 18 200 6.4 17.7 0.00 0.00 0.00 48 1010.5
20260503220230 18 229 9.7 12.9 0.00 0.00 0.00 47 1010.5
20260503215727 18 217 1.6 14.5 0.00 0.00 0.00 48 1010.6
20260503215224 18 235 4.8 16.1 0.00 0.00 0.00 49 1010.6
20260503214722 19 206 3.2 8.0 0.00 0.00 0.00 47 1010.6
20260503214218 18 241 8.0 14.5 0.00 0.00 0.00 49 1010.6
20260503213717 18 274 4.8 16.1 0.00 0.00 0.00 47 1010.8
20260503213214 18 228 11.3 17.7 0.00 0.00 0.00 48 1010.6
20260503212710 18 165 4.8 20.9 0.00 0.00 0.00 49 1010.8
20260503212208 18 244 11.3 22.5 0.00 0.00 0.00 48 1011.0
20260503211706 18 226 3.2 11.3 0.00 0.00 0.00 48 1010.7
20260503211201 18 172 3.2 12.9 0.00 0.00 0.00 47 1010.8
20260503210657 18 187 3.2 14.5 0.00 0.00 0.00 47 1010.3
20260503210154 17 195 8.0 16.1 0.00 0.00 0.00 48 1010.6
20260503205650 17 236 9.7 24.1 0.00 0.00 0.00 47 1010.8
20260503205146 17 228 19.3 29.0 0.00 0.00 0.00 48 1010.8
20260503204643 17 194 11.3 14.5 0.00 0.00 0.00 48 1011.2
20260503204141 17 228 8.0 22.5 0.00 0.00 0.00 49 1011.2
20260503203632 18 207 8.0 20.9 0.00 0.00 0.00 48 1011.3
20260503203130 18 245 17.7 17.7 0.00 0.00 0.00 48 1011.2
20260503202627 17 208 24.1 30.6 0.00 0.00 0.00 47 1011.1
20260503202125 17 222 6.4 17.7 0.00 0.00 0.00 49 1011.4
20260503201623 17 183 11.3 19.3 0.00 0.00 0.00 48 1011.5
20260503201120 17 225 19.3 20.9 0.00 0.00 0.00 49 1011.7
20260503200616 18 208 11.3 20.9 0.00 0.00 0.00 46 1011.7
20260503200113 18 210 12.9 38.6 0.00 0.00 0.00 45 1011.6
20260503195609 18 220 19.3 29.0 0.00 0.00 0.00 44 1011.9
20260503195106 19 197 6.4 20.9 0.00 0.00 0.00 44 1012.0
20260503194603 19 236 4.8 25.7 0.00 0.00 0.00 46 1012.0
20260503194058 18 221 6.4 27.4 0.00 0.00 0.00 45 1012.0
20260503193555 18 130 12.9 20.9 0.00 0.00 0.00 44 1012.2
20260503193050 18 181 9.7 24.1 0.00 0.00 0.00 44 1012.1
20260503192546 18 222 8.0 17.7 0.00 0.00 0.00 47 1012.2
20260503192043 18 209 11.3 29.0 0.00 0.00 0.00 45 1012.1
20260503191539 18 215 8.0 20.9 0.00 0.00 0.00 46 1011.9
20260503191036 18 202 3.2 22.5 0.00 0.00 0.00 47 1012.1
20260503190533 18 228 9.7 22.5 0.00 0.00 0.00 46 1012.2
20260503190031 18 208 19.3 22.5 0.00 0.00 0.00 44 1012.4
20260503185527 18 228 19.3 20.9 0.00 0.00 0.00 45 1012.6
20260503185026 17 200 4.8 27.4 0.00 0.00 0.00 47 1012.8
20260503184523 18 227 9.7 46.7 0.00 0.00 0.00 45 1012.9
20260503184019 17 33 4.8 27.4 0.00 0.00 0.00 49 1013.1
20260503183516 17 229 20.9 24.1 0.00 0.00 0.00 48 1013.3
20260503183013 17 227 8.0 19.3 0.00 0.00 0.00 49 1013.4
20260503182512 16 220 6.4 25.7 0.00 0.00 0.00 49 1013.7
20260503182009 16 134 16.1 22.5 0.00 0.00 0.00 49 1014.0
20260503181506 16 199 6.4 20.9 0.00 0.00 0.00 50 1013.9
20260503181002 15 201 6.4 17.7 0.00 0.00 0.00 51 1014.4
20260503180500 15 210 19.3 19.3 0.00 0.00 0.00 50 1014.6
20260503175956 15 204 9.7 16.1 0.00 0.00 0.00 51 1014.6
20260503175455 15 110 4.8 19.3 0.00 0.00 0.00 51 1014.9
20260503174951 15 207 3.2 16.1 0.00 0.00 0.00 50 1014.8
20260503174449 15 225 14.5 19.3 0.00 0.00 0.00 50 1014.8
20260503173944 15 209 8.0 19.3 0.00 0.00 0.00 51 1015.1
20260503173440 15 228 14.5 20.9 0.00 0.00 0.00 50 1015.3
20260503172937 15 183 3.2 9.7 0.00 0.00 0.00 51 1015.4
20260503172435 15 187 3.2 17.7 0.00 0.00 0.00 51 1015.5
20260503171931 15 180 3.2 24.1 0.00 0.00 0.00 50 1015.5
20260503171428 15 180 9.7 12.9 0.00 0.00 0.00 50 1015.4
20260503170926 15 222 3.2 17.7 0.00 0.00 0.00 51 1015.5
20260503170421 15 201 4.8 14.5 0.00 0.00 0.00 50 1015.3
20260503150814 14 135 3.2 12.9 0.00 0.00 0.00 58 1017.3
20260503150309 14 234 6.4 12.9 0.00 0.00 0.00 60 1017.4
20260503140234 11 220 6.4 9.7 0.00 0.00 0.00 68 1017.8
20260503131158 10 194 4.8 11.3 0.00 0.00 0.00 70 1018.4
20260503130655 10 219 8.0 17.7 0.00 0.00 0.00 70 1018.2
20260503130153 10 187 4.8 19.3 0.00 0.00 0.00 70 1018.1
20260503120118 8 231 0.0 6.4 0.00 0.00 0.00 73 1018.2
20260503110539 6 137 1.6 4.8 0.00 0.00 0.00 77 1017.8
20260503090420 5 59 3.2 3.2 0.00 0.00 0.00 76 1018.4
20260503081347 4 63 0.0 3.2 0.00 0.00 0.00 78 1018.4
20260503080844 4 38 0.0 3.2 0.00 0.00 0.00 76 1018.5
20260503080341 5 140 0.0 3.2 0.00 0.00 0.00 75 1018.6
20260503072817 3 289 1.6 3.2 0.00 0.00 0.00 80 1018.5
20260503072314 3 353 1.6 3.2 0.00 0.00 0.00 83 1018.4
20260503071810 3 7 3.2 3.2 0.00 0.00 0.00 82 1018.6
20260503071308 3 8 1.6 3.2 0.00 0.00 0.00 84 1018.6
20260503070803 3 354 1.6 3.2 0.00 0.00 0.00 85 1018.6
20260503070302 3 25 0.0 3.2 0.00 0.00 0.00 85 1018.6
20260503060221 3 34 0.0 3.2 0.00 0.00 0.00 86 1019.0
20260503054707 3 43 1.6 3.2 0.00 0.00 0.00 86 1019.2
20260503054205 3 4 0.0 3.2 0.00 0.00 0.00 86 1019.2
20260503053702 3 24 0.0 1.6 0.00 0.00 0.00 85 1019.3
20260503053156 3 32 1.6 3.2 0.00 0.00 0.00 85 1019.4
20260503052651 3 42 0.0 3.2 0.00 0.00 0.00 85 1019.3
20260503052148 3 36 0.0 3.2 0.00 0.00 0.00 85 1019.3
20260503051643 3 30 1.6 3.2 0.00 0.00 0.00 86 1019.3
20260503051141 3 354 3.2 4.8 0.00 0.00 0.00 85 1019.5
20260503050638 3 343 0.0 3.2 0.00 0.00 0.00 86 1019.2
20260503050134 3 56 0.0 3.2 0.00 0.00 0.00 87 1019.5
20260503045632 3 346 0.0 3.2 0.00 0.00 0.00 87 1019.5
20260503045129 3 356 1.6 3.2 0.00 0.00 0.00 86 1019.4
20260503044626 3 39 1.6 1.6 0.00 0.00 0.00 87 1019.2
20260503044123 3 16 1.6 3.2 0.00 0.00 0.00 87 1019.5
20260503043619 3 355 1.6 3.2 0.00 0.00 0.00 87 1019.3
20260503043116 3 14 3.2 3.2 0.00 0.00 0.00 87 1019.4
20260503042613 3 353 1.6 3.2 0.00 0.00 0.00 87 1019.3